Location: Newark
(54.6833°N, 25.2833°E)
Time: 12:05:03
(UTC+00:00)

Altair - All Passes

Search period start: 21 January 2021 00:00
Search period end: 31 January 2021 00:00
Orbit: 1501 x 1682 km, 47.2° (Epoch: 20 January)

Date Brightness Start Highest point End Pass type
(mag) Time Alt. Az. Time Alt. Az. Time Alt. Az.
21 Jan - 02:21:48 10° SSE 02:26:35 15° SE 02:31:24 10° E visible
21 Jan - 04:20:08 10° SSW 04:29:01 37° SSE 04:37:58 10° E visible
21 Jan - 06:22:50 10° WSW 06:32:37 56° S 06:42:22 10° E daylight
21 Jan - 08:26:54 10° W 08:36:35 52° SSW 08:46:06 10° SE daylight
21 Jan - 10:31:37 10° W 10:39:51 30° SW 10:47:55 10° SSE daylight
22 Jan - 01:57:36 10° SSE 02:01:37 13° SE 02:05:38 10° E visible
22 Jan - 03:55:11 10° SSW 04:03:56 35° SE 04:12:45 10° E visible
22 Jan - 05:57:42 10° WSW 06:07:28 55° S 06:17:12 10° E daylight
22 Jan - 08:01:43 10° W 08:11:26 53° SSW 08:21:01 10° ESE daylight
22 Jan - 10:06:21 10° W 10:14:47 31° SW 10:23:03 10° SSE daylight
23 Jan - 01:33:40 10° SE 01:36:38 12° ESE 01:39:37 10° ESE visible
23 Jan - 03:30:16 10° SSW 03:38:51 34° SE 03:47:31 10° E visible
23 Jan - 05:32:35 10° WSW 05:42:19 54° SSE 05:52:03 10° E visible
23 Jan - 07:36:32 10° W 07:46:17 54° SSW 07:55:56 10° ESE daylight
23 Jan - 09:41:06 10° W 09:49:43 33° SW 09:58:11 10° SSE daylight
23 Jan - 11:49:20 10° WSW 11:51:52 11° WSW 11:54:24 10° SW daylight
24 Jan - 01:10:38 10° SE 01:11:41 10° ESE 01:12:44 10° ESE visible
24 Jan - 03:05:21 10° SSW 03:13:46 32° SE 03:22:17 10° E visible
24 Jan - 05:07:29 10° WSW 05:17:10 53° SSE 05:26:52 10° E visible
24 Jan - 07:11:22 10° W 07:21:08 55° S 07:30:50 10° ESE daylight
24 Jan - 09:15:52 10° W 09:24:39 35° SW 09:33:17 10° SSE daylight
24 Jan - 11:23:11 10° WSW 11:26:55 13° SW 11:30:37 10° SSW daylight
25 Jan - 02:40:29 10° SSW 02:48:42 30° SE 02:57:01 10° E visible
25 Jan - 04:42:23 10° WSW 04:52:01 52° SSE 05:01:42 10° E visible
25 Jan - 06:46:11 10° W 06:55:59 56° S 07:05:43 10° ESE daylight
25 Jan - 08:50:38 10° W 08:59:34 37° SSW 09:08:21 10° SSE daylight
25 Jan - 10:57:22 10° W 11:01:56 14° SW 11:06:28 10° SSW daylight
26 Jan - 02:15:39 10° SSW 02:23:38 28° SE 02:31:45 10° E visible
26 Jan - 04:17:18 10° SW 04:26:52 51° SSE 04:36:31 10° E visible
26 Jan - 06:21:01 10° W 06:30:50 57° S 06:40:35 10° ESE daylight
26 Jan - 08:25:25 10° W 08:34:28 39° SSW 08:43:23 10° SSE daylight
26 Jan - 10:31:42 10° W 10:36:57 16° SW 10:42:09 10° SSW daylight
27 Jan - 01:50:50 10° S 01:58:35 27° SE 02:06:28 10° E visible
27 Jan - 03:52:14 10° SW 04:01:45 50° SSE 04:11:21 10° E visible
27 Jan - 05:55:52 10° W 06:05:40 57° S 06:15:28 10° ESE daylight
27 Jan - 08:00:12 10° W 08:09:22 40° SSW 08:18:25 10° SE daylight
27 Jan - 10:06:09 10° W 10:11:57 17° SW 10:17:43 10° SSW daylight
28 Jan - 01:26:04 10° S 01:33:33 25° SE 01:41:09 10° E visible
28 Jan - 03:27:10 10° SW 03:36:36 48° SSE 03:46:10 10° E visible
28 Jan - 05:30:42 10° WSW 05:40:30 57° S 05:50:19 10° ESE visible
28 Jan - 07:35:01 10° W 07:44:16 42° SSW 07:53:25 10° SE daylight
28 Jan - 09:40:40 10° W 09:46:57 19° SW 09:53:11 10° S daylight
29 Jan - 01:01:20 10° S 01:08:31 23° SE 01:15:50 10° E visible
29 Jan - 03:02:08 10° SW 03:11:29 47° SSE 03:20:58 10° E visible
29 Jan - 05:05:33 10° WSW 05:15:20 58° S 05:25:11 10° ESE visible
29 Jan - 07:09:48 10° W 07:19:09 44° SSW 07:28:25 10° SE daylight
29 Jan - 09:15:15 10° W 09:21:56 20° SW 09:28:35 10° S daylight
30 Jan - 00:36:38 10° S 00:43:30 22° SE 00:50:28 10° E visible
30 Jan - 02:37:06 10° SW 02:46:21 45° SSE 02:55:46 10° E visible
30 Jan - 04:40:25 10° WSW 04:50:11 58° S 05:00:02 10° ESE visible
30 Jan - 06:44:37 10° W 06:54:01 45° SSW 07:03:23 10° SE daylight
30 Jan - 08:49:52 10° W 08:56:55 22° SW 09:03:55 10° S daylight
